AirNav   Air Wisconsin Up To $57,000 Bonus
 
 625 users online  

C01 Southern Cross Airport
Williamstown, New Jersey, USA

GOING TO WILLIAMSTOWN?


FAA INFORMATION EFFECTIVE 11 AUGUST 2022

Location

FAA Identifier: C01
Lat/Long: 39-39-20.0000N 075-00-52.0000W
39-39.333333N 075-00.866667W
39.6555556,-75.0144444
(estimated)
Elevation: 145 ft. / 44 m (estimated)
Variation: 12W (1995)
From city: 3 miles SW of WILLIAMSTOWN, NJ
Time zone: UTC -4 (UTC -5 during Standard Time)
Zip code: 08094

Airport Operations

Airport use: Open to the public
Activation date: 08/1997
Control tower: no
ARTCC: NEW YORK CENTER
FSS: MILLVILLE FLIGHT SERVICE STATION
NOTAMs facility: MIV (NOTAM-D service available)
Attendance: IREG IREG IREG
Wind indicator: yes
Segmented circle: no

Airport Communications

CTAF: 122.9
WX AWOS-AV at N81 (12 nm E): 122.7
WX ASOS at PHL (17 nm NW): PHONE 215-492-9617
WX ASOS at MIV (17 nm S): 119.6 (856-327-3455)
WX ASOS at VAY (19 nm NE): 119.325 (609-267-1176)

Nearby radio navigation aids

VOR radial/distance  VOR name  Freq  Var
VCNr353/7.4CEDAR LAKE VOR/DME115.2010W
OODr095/13.4WOODSTOWN VORTAC112.8010W
ACYr311/23.5ATLANTIC CITY VORTAC108.6010W
DQOr103/27.4DUPONT VORTAC114.0010W
CYNr260/28.6COYLE VORTAC113.4010W
GXUr234/28.7MC GUIRE VORTAC110.6012W
MXEr126/34.1MODENA VORTAC113.2009W
ENOr051/34.5SMYRNA VORTAC111.4009W
SIEr353/35.0SEA ISLE VORTAC114.8009W
ARDr198/36.2YARDLEY VOR/DME108.2010W

 
NDB name  Hdg/Dist  Freq  Var  ID
RAINBOW032/15.336311WRNB .-. -. -...
LAKEHURST244/39.039611WNEL -. . .-..

Airport Services

Airframe service: NONE
Powerplant service: NONE

Runway Information

Runway 9/27

Dimensions: 2400 x 80 ft. / 732 x 24 m
Surface: turf, in fair condition
RUNWAY 9  RUNWAY 27
Traffic pattern: leftleft
Obstructions: 33 ft. pline, marked, 50 ft. from runway, 1:1 slope to clear
P-LINE MARKED WITH ORANGE BALLS.
57 ft. tree, 20 ft. from runway, 86 ft. left of centerline

Airport Ownership and Management from official FAA records

Ownership: Privately-owned
Owner: EDWARD A. CARTER
256 SOUTH TUCKAHOE RD
WILLIAMSTOWN, NJ 08094
Phone (609) 820-7987
Manager: EDWARD A CARTER
256 SOUTH TUCKAHOE RD
WILLIAMSTOWN, NJ 08094
Phone (609) 820-7987

Airport Operational Statistics

Aircraft operations: avg 21/month *
86% local general aviation
14% transient general aviation
* for 12-month period ending 02 May 2019

Additional Remarks

FOR CD CTC PHILADELPHIA APCH AT 800-354-9884
DEER & BIRDS ON & INVOF ARPT.

Instrument Procedures

There are no published instrument procedures at C01.

Some nearby airports with instrument procedures:

17N - Cross Keys Airport (3 nm N)
19N - Camden County Airport (8 nm NE)
29N - Kroelinger Airport (8 nm S)
N81 - Hammonton Municipal Airport (12 nm E)
KPHL - Philadelphia International Airport (17 nm NW)
KMIV - Millville Municipal Airport (17 nm S)
7N7 - Spitfire Aerodrome (18 nm W)
KVAY - South Jersey Regional Airport (19 nm NE)
N14 - Flying W Airport (19 nm NE)
 
Loc | Ops | Rwys | IFR | FBO | Links
Com | Nav | Svcs | Stats | Notes
Area around C01 (Southern Cross Airport)
 
Road maps at: MapQuest Bing Google
 
Aerial photo
WARNING: Photo may not be current or correct
Aerial photo of C01 (Southern Cross Airport)
Do you have a better or more recent aerial photo of Southern Cross Airport that you would like to share? If so, please send us your photo.

 
Sectional chart

 
Airport distance calculator
Flying to Southern Cross Airport? Find the distance to fly.

From to C01

Sunrise and sunset
Times for 14-Aug-2022
 Local
(UTC-4)
 Zulu
(UTC)
Morning civil twilight05:4309:43
Sunrise06:1210:12
Sunset19:5723:57
Evening civil twilight20:2600:26

Current date and time
Zulu (UTC)  14-Aug-2022 04:55:10
Local (UTC-4)  14-Aug-2022 00:55:10
 
METAR
KPHL 
16nm NW 
140354Z 00000KT 10SM BKN250 21/14 A3008 RMK AO2 SLP186 T02060144 $
KMIV 
18nm S 
140354Z AUTO 00000KT 10SM CLR 16/14 A3009 RMK AO2 SLP186 T01560139
KVAY 
19nm NE 
ASOS 119.325 609-267-1176
140354Z AUTO 00000KT 10SM CLR 18/13 A3008 RMK AO2 SLP186 T01830128
KACY 
23nm SE 
140354Z 00000KT 10SM CLR 16/13 A3009 RMK AO2 SLP187 T01610133
KPNE 
26nm N 
140354Z AUTO 18003KT 10SM CLR 20/12 A3010 RMK AO2 SLP191 T02000122
KILG 
27nm W 
140351Z 14006KT 10SM CLR 21/15 A3008 RMK AO2 SLP186 T02060150 $
KWRI 
29nm NE 
140356Z AUTO 15004KT 10SM CLR 16/16 A3008 RMK AO2 SLP185 T01640161 $
KLOM 
31nm N 
140435Z AUTO 00000KT 10SM CLR 15/14 A3010 RMK AO2 T01480136
TAF
KPHL 
16nm NW 
140147Z 1402/1506 15007KT P6SM SCT250 FM140500 06003KT P6SM FEW250 FM141800 20006KT P6SM SCT050 FM150100 20004KT P6SM BKN050
KMIV 
18nm S 
140147Z 1402/1424 13004KT P6SM FEW250 FM140400 VRB03KT P6SM FEW250 FM141700 18006KT P6SM SCT050
NOTAMs
Click for the latest NOTAMs
NOTAMs are issued by the DoD/FAA and will open in a separate window not controlled by AirNav.

 

 
 

Would you like to see your business listed on this page?

 If your business provides an interesting product or service to pilots, flight crews, aircraft, or users of the Southern Cross Airport, you should consider listing it here.  To start the listing process, click on the button below
 
Add a business
 

Other Pages about Southern Cross Airport

Update a link
 
Copyright © AirNav, LLC. All rights reserved. Privacy Policy  Contact